Regional Weather Roundup
Issued by NWS

Home | Current Version | Previous Version | Graphics & Text | Print | Product List | Glossary On
Versions: 1 2 3 4 5 6 7 8 9 10 11 12 13 14 15 16 17 18 19 20 21 22 23 24 25 26 27 28 29 30 31 32 33 34 35 36 37 38 39 40 41 42 43 44 45 46 47 48 49 50
000
ASUS45 KCYS 201210
RWRWY

WYOMING REGIONAL WEATHER ROUNDUP
NATIONAL WEATHER SERVICE CHEYENNE WY
600 AM MDT MON OCT 20 2014

NOTE:  "FAIR" INDICATES FEW OR NO CLOUDS BELOW 12,000 FEET
WITH NO SIGNIFICANT WEATHER AND/OR OBSTRUCTIONS TO VISIBILITY.

WYZ001-201300-
YELLOWSTONE NATIONAL PARK

CITY           SKY/WX    TMP DP  RH WIND       PRES   REMARKS
LK YELLOWSTONE   N/A     25  22  88 NW3       30.23R
6HR MIN TEMP:  25; 6HR MAX TEMP:  28;

W YELLOWSTONE  NOT AVBL

$$
WYZ002>013-054>058-071-098>099-201300-
NORTHERN WYOMING

CITY           SKY/WX    TMP DP  RH WIND       PRES   REMARKS
JACKSON        PTCLDY    27  23  86 N8        30.19S WCI  18
CODY           CLEAR    N/A N/A N/A CALM      30.02S
GREYBULL       CLEAR     35  27  72 CALM      30.02S
6HR MIN TEMP:  35; 6HR MAX TEMP:  43;

WORLAND        CLEAR     35  27  72 CALM      30.02S
6HR MIN TEMP:  35; 6HR MAX TEMP:  44;

SHERIDAN       PTCLDY    34  27  75 SE3       29.97F
6HR MIN TEMP:  32; 6HR MAX TEMP:  42;

BUFFALO        CLEAR     48  21  34 W6        30.02S
6HR MIN TEMP:  47; 6HR MAX TEMP:  59;

GILLETTE       CLEAR     47  35  63 S12       30.02F
6HR MIN TEMP:  46; 6HR MAX TEMP:  52;

HULETT         FAIR      50  36  57 CALM      30.04
NEWCASTLE      FAIR      54  34  47 E7        30.07

$$
WYZ014>020-022>026-101>103-201300-
CENTRAL WYOMING

CITY           SKY/WX    TMP DP  RH WIND       PRES   REMARKS
BIG PINEY      PTCLDY    25  20  81 CALM      30.21S
6HR MIN TEMP:  25; 6HR MAX TEMP:  34;

PINEDALE       MOSUNNY   27  23  86 W8        30.21F WCI  18
DUBOIS         FAIR      37  21  52 NW10      30.16S WCI  30
LANDER         CLEAR     42  27  55 CALM      30.08F
6HR MIN TEMP:  38; 6HR MAX TEMP:  51;

RIVERTON       CLEAR     42  25  50 NW13      30.10S
6HR MIN TEMP:  41; 6HR MAX TEMP:  47;

CASPER         CLEAR     33  28  81 S3        30.09F
6HR MIN TEMP:  30; 6HR MAX TEMP:  41;

DOUGLAS        CLEAR     39  33  79 SE3       30.11R
6HR MIN TEMP:  34; 6HR MAX TEMP:  48;


$$
WYZ021-027>030-104>119-201300-
SOUTHERN WYOMING

CITY           SKY/WX    TMP DP  RH WIND       PRES   REMARKS
EVANSTON       CLEAR     44  27  51 SE6       30.18S
6HR MIN TEMP:  42; 6HR MAX TEMP:  49;

KEMMERER       SUNNY     36  28  75 N10       30.19F WCI  28
FORT BRIDGER   FAIR      44  30  59 W3        30.21R
ROCK SPRINGS   PTCLDY    38  28  67 S8        30.18S WCI  32
6HR MIN TEMP:  38; 6HR MAX TEMP:  50;

DIXON          FAIR      32  28  85 CALM      30.22S
RAWLINS        PTCLDY    32  24  72 CALM      30.19S
6HR MIN TEMP:  31; 6HR MAX TEMP:  39;

SARATOGA       FAIR      37  30  75 S3        30.21S
LARAMIE        CLEAR     34  28  79 S10       30.21S WCI  26
6HR MIN TEMP:  30; 6HR MAX TEMP:  45;

CHEYENNE       CLEAR     37  32  82 W7        30.17S WCI  32
6HR MIN TEMP:  37; 6HR MAX TEMP:  44;

TORRINGTON     PTCLDY    36  32  85 CALM      30.09S
6HR MIN TEMP:  36; 6HR MAX TEMP:  45;

PINE BLUFFS    FAIR      34  32  93 CALM      30.15S

$$


USA.gov is the U.S. government's official web portal to all federal, state and local government web resources and services.